This is the latest recevied weather packets stored in our database for station/object W7TJC. If no packets are shown the sender has not sent any weather packets the latest 10 day(s).
| Time | Temp. | Humidity | Pressure | Rain* | Wind** | Luminosity | Snow |
|---|---|---|---|---|---|---|---|
| 1777872506 | 17.22° C | 60% | 1010.7 hPa | 0 mm | - | 0 W/m² | - |
| 1777872204 | 17.22° C | 58% | 1010.7 hPa | 0 mm | - | 0 W/m² | - |
| 1777871901 | 17.78° C | 59% | 1010.7 hPa | 0 mm | - | 0 W/m² | - |
| 1777871597 | 17.78° C | 56% | 1010.7 hPa | 0 mm | - | 0 W/m² | - |
| 1777871294 | 17.78° C | 60% | 1010.4 hPa | 0 mm | - | 0 W/m² | - |
| 1777870991 | 18.33° C | 59% | 1010.4 hPa | 0 mm | - | 0 W/m² | - |
| 1777870688 | 18.89° C | 55% | 1010.4 hPa | 0 mm | - | 0 W/m² | - |
| 1777870389 | 18.89° C | 51% | 1010.6 hPa | 0 mm | - | 0 W/m² | - |
| 1777870086 | 18.89° C | 51% | 1010.8 hPa | 0 mm | - | 0 W/m² | - |
| 1777869783 | 18.89° C | 48% | 1010.6 hPa | 0 mm | - | 0 W/m² | - |
| 1777869481 | 18.89° C | 52% | 1010.5 hPa | 0 mm | - | 0 W/m² | - |
| 1777869177 | 18.89° C | 52% | 1010.5 hPa | 0 mm | - | 0 W/m² | - |
| 1777868875 | 18.89° C | 52% | 1010.5 hPa | 0 mm | - | 0 W/m² | - |
| 1777868571 | 18.89° C | 51% | 1010.7 hPa | 0 mm | - | 0 W/m² | - |
| 1777868268 | 19.44° C | 52% | 1010.6 hPa | 0 mm | - | 0 W/m² | - |
| 1777867964 | 19.44° C | 52% | 1010.4 hPa | 0 mm | - | 0 W/m² | - |
| 1777867660 | 19.44° C | 51% | 1010.6 hPa | 0 mm | - | 0 W/m² | - |
| 1777867358 | 20° C | 50% | 1010.3 hPa | 0 mm | - | 0 W/m² | - |
| 1777867053 | 20.56° C | 49% | 1010.4 hPa | 0 mm | - | 0 W/m² | - |
| 1777866751 | 20.56° C | 48% | 1010.3 hPa | 0 mm | - | 0 W/m² | - |
| 1777866448 | 21.11° C | 41% | 1010.3 hPa | 0 mm | - | 0 W/m² | - |
| 1777866145 | 21.67° C | 46% | 1010.5 hPa | 0 mm | - | 0 W/m² | - |
| 1777865843 | 22.22° C | 41% | 1010.4 hPa | 0 mm | - | 0 W/m² | - |
| 1777865540 | 22.22° C | 41% | 1010.2 hPa | 0 mm | - | 0 W/m² | - |
| 1777865237 | 22.22° C | 39% | 1010.4 hPa | 0 mm | - | 0 W/m² | - |
* Rain latest hour (hover to see other rain measurements)
** Current wind speed in m/s (hover to see current wind gust speed)